Overview Statistics Trail Chart Weather Telemetry Raw packets
 

This is the latest recevied weather packets stored in our database for station/object N3TUQ-2. If no packets are shown the sender has not sent any weather packets the latest 10 day(s).

<< 1 2 3 4 >>
Time Temp. Humidity Pressure Rain* Wind** Luminosity Snow
1788605634 13.89° C 98% 1012.1 hPa 0 mm - - -
1788604854 14.44° C 98% 1012 hPa 0 mm - - -
1788603294 14.44° C 98% 1011.5 hPa 0 mm - - -
1788602513 14.44° C 98% 1011.6 hPa 0 mm - - -
1788601734 14.44° C 98% 1011.5 hPa 0 mm - - -
1788600954 13.89° C 98% 1011.6 hPa 0 mm - - -
1788600174 14.44° C 97% 1011.6 hPa 0 mm - - -
1788599394 14.44° C 98% 1011.6 hPa 0 mm - - -
1788598614 14.44° C 97% 1011.5 hPa 0 mm - - -
1788597833 15° C 97% 1011.5 hPa 0 mm - - -
1788597053 15° C 97% 1011.3 hPa 0 mm - - -
1788596274 15° C 97% 1011.5 hPa 0 mm - - -
1788595494 15° C 97% 1011.4 hPa 0 mm - - -
1788594714 15.56° C 97% 1011.5 hPa 0 mm - - -
1788593934 15.56° C 97% 1011.4 hPa 0 mm - - -
1788593153 15.56° C 97% 1011.6 hPa 0 mm - - -
1788592373 15.56° C 97% 1011.8 hPa 0 mm - - -
1788591594 15.56° C 96% 1011.9 hPa 0 mm - - -
1788590814 16.11° C 95% 1011.9 hPa 0 mm - - -
1788590034 16.11° C 95% 1012.1 hPa 0 mm - - -
1788589254 16.67° C 94% 1012.2 hPa 0 mm - - -
1788588474 16.67° C 94% 1012.3 hPa 0 mm - - -
1788587693 17.22° C 94% 1012.4 hPa 0 mm - - -
1788586913 17.22° C 93% 1012.4 hPa 0 mm - - -
1788586134 17.22° C 92% 1012.5 hPa 0 mm - - -

* Rain latest hour (hover to see other rain measurements)
** Current wind speed in m/s (hover to see current wind gust speed)